Location: El Bakhil
(32.7726°N, 5.5387°W)
Time: 10:29:50
(UTC+00:00)

SME Rocket - Pass Details

Date: 03 March 2021
Orbit: 550 x 2652 km, 99.9° (Epoch: 15 April)

Event Time Altitude Azimuth Distance (km) Brightness Sun altitude
Rises 19:13:21 0° 22° (NNE) 4,381 7.2 -11.8°
Reaches altitude 10° 19:16:55 10° 32° (NNE) 3,060 6.3 -12.5°
Maximum altitude 19:22:35 30° 92° (E) 1,512 4.4 -13.7°
Drops below altitude 10° 19:26:42 10° 154° (SSE) 2,180 5.6 -14.6°
Sets 19:28:50 0° 166° (SSE) 2,945 6.4 -15.0°
